DW4895 Weather Reports


time (UTC)temp
F
wind
direction
speed
knots
gust
knots
rain 1hr
in
rain 24hr
in
rain mn
in
humidity
%
barometer
mb
20260504130521 58 215 4.3 17.4 0.00 0.00 0.00 66 1000.5
20260504110520 49 216 0.0 17.4 0.00 0.00 0.00 77 1000.6
20260504100518 48 216 0.0 17.4 0.00 0.00 0.00 80 1001.2
20260504081015 52 216 0.0 17.4 0.00 0.00 0.00 71 1001.6
20260504080515 52 216 0.0 17.4 0.00 0.00 0.00 71 1001.6
20260504050512 58 216 0.0 17.4 0.00 0.00 0.00 62 1003.3
20260504050012 59 216 0.0 17.4 0.00 0.00 0.00 61 1003.3
20260504045511 59 216 0.0 17.4 0.00 0.00 0.00 61 1003.2
20260504044511 59 216 0.0 17.4 0.00 0.00 0.00 61 1003.3
20260504043512 60 216 1.7 17.4 0.00 0.00 0.00 60 1003.3
20260504043011 60 216 2.6 17.4 0.00 0.00 0.00 59 1003.3
20260504042512 60 215 1.7 17.4 0.00 0.00 0.00 59 1003.3
20260504042011 60 215 3.5 17.4 0.00 0.00 0.00 58 1003.2
20260504041510 60 215 0.0 17.4 0.00 0.00 0.00 59 1003.3
20260504041010 60 215 0.0 17.4 0.00 0.00 0.00 59 1003.2
20260504040510 61 215 1.7 17.4 0.00 0.00 0.00 59 1003.3
20260504035510 61 215 4.3 17.4 0.00 0.00 0.00 58 1003.1
20260504035010 61 215 1.7 17.4 0.00 0.00 0.00 58 1003.2
20260504034510 62 215 3.5 17.4 0.00 0.00 0.00 57 1003.2
20260504033510 62 213 0.0 17.4 0.00 0.00 0.00 56 1003.4
20260504032510 62 213 0.0 17.4 0.00 0.00 0.00 56 1003.4
20260504032009 63 213 0.9 17.4 0.00 0.00 0.00 56 1003.4
20260504031509 63 213 3.5 17.4 0.00 0.00 0.00 55 1003.4
20260504031009 63 212 1.7 17.4 0.00 0.00 0.00 55 1003.3
20260504030009 63 212 0.9 17.4 0.00 0.00 0.00 54 1003.3
20260504025009 64 212 5.2 17.4 0.00 0.00 0.00 55 1003.1
20260504024508 64 212 2.6 17.4 0.00 0.00 0.00 53 1003.0
20260504024008 64 212 3.5 17.4 0.00 0.00 0.00 53 1003.0
20260504023508 64 212 6.1 17.4 0.00 0.00 0.00 54 1002.9
20260504023008 64 211 4.3 17.4 0.00 0.00 0.00 54 1002.9
20260504022508 64 211 3.5 17.4 0.00 0.00 0.00 54 1002.8
20260504022008 64 211 5.2 17.4 0.00 0.00 0.00 54 1002.8
20260504021508 65 211 5.2 17.4 0.00 0.00 0.00 54 1002.7
20260504020508 65 211 6.1 17.4 0.00 0.00 0.00 54 1002.6
20260504020007 65 211 3.5 17.4 0.00 0.00 0.00 53 1002.5
20260504015507 65 211 4.3 17.4 0.00 0.00 0.00 53 1002.5
20260504014007 66 211 6.1 17.4 0.00 0.00 0.00 52 1002.3
20260504013507 66 211 7.0 17.4 0.00 0.00 0.00 52 1002.3
20260504013007 67 213 7.8 17.4 0.00 0.00 0.00 51 1002.4
20260504012507 67 213 3.5 17.4 0.00 0.00 0.00 51 1002.4
20260504012007 67 214 7.8 17.4 0.00 0.00 0.00 51 1002.3
20260504011506 67 214 7.0 17.4 0.00 0.00 0.00 50 1002.3
20260504011007 68 215 7.8 17.4 0.00 0.00 0.00 50 1002.3
20260504010006 68 217 7.8 17.4 0.00 0.00 0.00 49 1002.3
20260504005506 68 217 4.3 17.4 0.00 0.00 0.00 49 1002.3
20260504005006 68 216 3.5 17.4 0.00 0.00 0.00 48 1002.2
20260504004006 69 215 6.1 17.4 0.00 0.00 0.00 47 1002.2
20260504003506 69 215 7.8 17.4 0.00 0.00 0.00 48 1002.4
20260504003006 69 217 6.1 17.4 0.00 0.00 0.00 48 1002.5
20260504002005 69 215 6.1 17.4 0.00 0.00 0.00 47 1002.4
20260504001505 70 218 5.2 17.4 0.00 0.00 0.00 47 1002.5
20260504001005 70 217 7.0 17.4 0.00 0.00 0.00 47 1002.6
20260504000505 70 219 7.0 17.4 0.00 0.00 0.00 47 1002.5
20260504000005 70 217 6.1 17.4 0.00 0.00 0.00 46 1002.6
20260503235505 70 213 9.6 17.4 0.00 0.00 0.00 45 1002.5
20260503234505 71 250 6.1 17.4 0.00 0.00 0.00 44 1002.5
20260503234004 71 215 7.0 17.4 0.00 0.00 0.00 45 1002.5
20260503233504 71 225 7.0 17.4 0.00 0.00 0.00 44 1002.5
20260503233004 71 213 8.7 17.4 0.00 0.00 0.00 43 1002.5
20260503232504 71 216 8.7 17.4 0.00 0.00 0.00 43 1002.4
20260503232004 71 215 8.7 17.4 0.00 0.00 0.00 43 1002.5
20260503231504 72 216 4.3 17.4 0.00 0.00 0.00 43 1002.6
20260503231004 71 212 4.3 17.4 0.00 0.00 0.00 44 1002.6
20260503230004 71 211 6.1 17.4 0.00 0.00 0.00 44 1002.6
20260503225004 72 213 6.1 17.4 0.00 0.00 0.00 42 1002.6
20260503224504 72 226 5.2 17.4 0.00 0.00 0.00 41 1002.6
20260503224003 72 232 7.0 17.4 0.00 0.00 0.00 42 1002.6
20260503223503 72 214 7.8 17.4 0.00 0.00 0.00 43 1002.7
20260503223003 72 215 5.2 17.4 0.00 0.00 0.00 42 1002.7
20260503222503 72 207 9.6 17.4 0.00 0.00 0.00 45 1002.7
20260503221002 72 207 7.8 17.4 0.00 0.00 0.00 42 1002.8
20260503220503 72 218 11.3 17.4 0.00 0.00 0.00 44 1002.9
20260503220003 72 214 8.7 17.4 0.00 0.00 0.00 43 1002.9
20260503215503 72 215 9.6 17.4 0.00 0.00 0.00 44 1002.9
20260503215002 72 214 12.2 17.4 0.00 0.00 0.00 44 1003.0
20260503214502 72 225 7.8 17.4 0.00 0.00 0.00 42 1003.1
20260503214003 72 208 7.0 17.4 0.00 0.00 0.00 43 1003.1
20260503213502 72 215 5.2 17.4 0.00 0.00 0.00 43 1003.2
20260503213002 72 263 10.4 17.4 0.00 0.00 0.00 43 1003.2
20260503211502 72 213 8.7 17.4 0.00 0.00 0.00 45 1003.2
20260503211002 72 232 4.3 17.4 0.00 0.00 0.00 44 1003.4
20260503210502 71 217 7.8 17.4 0.00 0.00 0.00 45 1003.4
20260503210001 71 249 7.0 17.4 0.00 0.00 0.00 44 1003.5
20260503205001 71 254 7.8 17.4 0.00 0.00 0.00 42 1003.7
20260503204501 71 267 5.2 17.4 0.00 0.00 0.00 45 1003.6
20260503204001 71 250 3.5 17.4 0.00 0.00 0.00 45 1003.7
20260503203501 71 213 13.0 17.4 0.00 0.00 0.00 44 1003.8
20260503203001 71 239 4.3 17.4 0.00 0.00 0.00 45 1003.8
20260503202500 71 218 9.6 17.4 0.00 0.00 0.00 45 1004.0
20260503201500 70 241 4.3 17.4 0.00 0.00 0.00 47 1004.0
20260503201000 70 215 5.2 17.4 0.00 0.00 0.00 45 1004.1
20260503200500 69 219 10.4 17.4 0.00 0.00 0.00 45 1004.3
20260503200000 70 206 11.3 17.4 0.00 0.00 0.00 44 1004.3
20260503195500 70 221 3.5 17.4 0.00 0.00 0.00 45 1004.4
20260503195000 69 218 13.0 17.4 0.00 0.00 0.00 45 1004.6
20260503194500 69 209 9.6 17.4 0.00 0.00 0.00 46 1004.5
20260503194000 69 257 6.1 17.4 0.00 0.00 0.00 46 1004.7
20260503193459 68 238 5.2 17.4 0.00 0.00 0.00 45 1004.8
20260503192959 69 211 13.9 17.4 0.00 0.00 0.00 45 1004.9
20260503192000 69 237 7.8 17.4 0.00 0.00 0.00 45 1005.0
20260503191459 69 275 8.7 17.4 0.00 0.00 0.00 43 1005.0
20260503190959 69 211 7.0 17.4 0.00 0.00 0.00 45 1005.1
20260503190459 69 292 8.7 17.4 0.00 0.00 0.00 44 1005.2
20260503185459 68 227 11.3 17.4 0.00 0.00 0.00 46 1005.3
20260503184958 67 219 13.9 17.4 0.00 0.00 0.00 44 1005.3
20260503184458 67 224 7.0 17.4 0.00 0.00 0.00 48 1005.5
20260503183958 66 211 11.3 17.4 0.00 0.00 0.00 47 1005.5
20260503183458 66 227 10.4 17.4 0.00 0.00 0.00 46 1005.6
20260503182958 66 213 9.6 17.4 0.00 0.00 0.00 46 1005.6
20260503181457 65 219 13.0 17.4 0.00 0.00 0.00 48 1006.2
20260503180958 65 203 8.7 17.4 0.00 0.00 0.00 47 1006.2
20260503180458 65 224 10.4 17.4 0.00 0.00 0.00 46 1006.2
20260503175957 65 212 13.0 17.4 0.00 0.00 0.00 48 1006.3
20260503175457 65 227 10.4 17.4 0.00 0.00 0.00 48 1006.3
20260503174957 65 216 16.5 17.4 0.00 0.00 0.00 46 1006.4
20260503174457 65 221 17.4 17.4 0.00 0.00 0.00 47 1006.5
20260503173957 65 209 11.3 17.4 0.00 0.00 0.00 45 1006.4
20260503173457 64 202 13.0 17.4 0.00 0.00 0.00 45 1006.6
20260503172957 64 210 16.5 17.4 0.00 0.00 0.00 46 1006.7
20260503172456 64 206 19.1 17.4 0.00 0.00 0.00 46 1006.7
20260503171956 64 209 17.4 17.4 0.00 0.00 0.00 46 1006.8
20260503170956 63 207 10.4 17.4 0.00 0.00 0.00 49 1006.7
20260503170456 63 208 8.7 17.4 0.00 0.00 0.00 48 1006.7
20260503150953 52 227 0.0 17.4 0.00 0.00 0.00 66 1008.9
20260503150524 52 227 0.0 17.4 0.00 0.00 0.00 69 1009.0